User: anonymous   Login
Location: Unspecified
(0.0000°N, 0.0000°E)
Time: 18:55:41
(UTC+00:00)
Language:

NANOSAT 1B - Orbit

View from above orbital plane
View from above orbital plane
View from above satellite
View from above satellite

Ground track
Ground track

The orbit data is extracted from the following two-line orbital elements,

1 35685U 09041E   17145.88065781 +.00000120 +00000-0 +21153-4 0  9991
2 35685 098.2383 119.6657 0060261 123.7013 236.9965 14.83933430422904
Epoch (UTC): 25 May 2017 21:08:08
Eccentricity: 0.0060261
inclination: 98.2383°
perigee height: 575 km
apogee height: 659 km
right ascension of ascending node: 119.6657°
argument of perigee: 123.7013°
revolutions per day: 14.83933430
mean anomaly at epoch: 236.9965°
orbit number at epoch: 42290

The dashed part of the orbit path shows where the satellite is in the earth's shadow,  

DLR